HEBOWX Weather Reports


Display with metric or nautical units.
time (UTC)temp
F
wind
direction
speed
MPH
gust
MPH
rain 1hr
in
rain 24hr
in
rain mn
in
humidity
%
barometer
mb
20260831112043 55 0 0.0 0.0 0.00 0.00 0.00 60 1010.5
20260831111543 55 0 0.0 0.0 0.00 0.00 0.00 60 1010.5
20260831111043 55 0 0.0 0.0 0.00 0.00 0.00 59 1010.5
20260831110543 55 0 0.0 0.0 0.00 0.00 0.00 60 1010.5
20260831110043 55 0 0.0 0.0 0.00 0.00 0.00 61 1010.5
20260831105543 54 0 0.0 0.0 0.00 0.00 0.00 61 1010.4
20260831105043 55 0 0.0 0.0 0.00 0.00 0.00 61 1010.5
20260831104543 54 0 0.0 0.0 0.00 0.00 0.00 61 1010.5
20260831104043 54 0 0.0 0.0 0.00 0.00 0.00 61 1010.6
20260831103543 54 0 0.0 0.0 0.00 0.00 0.00 62 1010.8
20260831103043 54 0 0.0 0.0 0.00 0.00 0.00 62 1010.5
20260831102543 54 0 0.0 0.0 0.00 0.00 0.00 62 1010.5
20260831102043 54 0 0.0 0.0 0.00 0.00 0.00 62 1010.9
20260831101543 54 0 0.0 0.0 0.00 0.00 0.00 63 1010.6
20260831101043 54 0 0.0 0.0 0.00 0.00 0.00 63 1010.9
20260831100543 54 0 0.0 0.0 0.00 0.00 0.00 63 1010.6
20260831100043 54 0 0.0 0.0 0.00 0.00 0.00 63 1010.7
20260831095542 54 0 0.0 0.0 0.00 0.00 0.00 63 1010.7
20260831094543 54 0 0.0 0.0 0.00 0.00 0.00 64 1010.8
20260831094043 54 0 0.0 0.0 0.00 0.00 0.00 64 1010.9
20260831093543 54 0 0.0 0.0 0.00 0.00 0.00 63 1010.9
20260831093043 54 0 0.0 0.0 0.00 0.00 0.00 63 1011.1
20260831092543 54 23 0.0 1.0 0.00 0.00 0.00 62 1011.5
20260831092043 54 49 0.0 1.0 0.00 0.00 0.00 63 1011.7
20260831091543 54 21 0.0 1.0 0.00 0.00 0.00 63 1011.8
20260831091043 53 89 0.0 0.0 0.00 0.00 0.00 63 1011.4
20260831090543 53 89 0.0 0.0 0.00 0.00 0.00 64 1011.5
20260831090043 54 95 0.0 2.0 0.00 0.00 0.00 63 1011.5
20260831085543 54 56 0.0 2.0 0.00 0.00 0.00 63 1011.7
20260831085042 54 109 0.0 2.0 0.00 0.00 0.00 63 1011.6
20260831084543 53 138 0.0 1.0 0.00 0.00 0.00 64 1011.8
20260831084042 53 0 0.0 3.0 0.00 0.00 0.00 64 1011.6
20260831083542 53 119 0.0 3.0 0.00 0.00 0.00 64 1011.6
20260831083042 53 105 0.0 3.0 0.00 0.00 0.00 65 1011.7
20260831082542 53 0 0.0 0.0 0.00 0.00 0.00 65 1011.7
20260831082042 53 102 0.0 4.0 0.00 0.00 0.00 65 1012.5
20260831081542 54 95 0.0 4.0 0.00 0.00 0.00 64 1011.8
20260831081042 53 105 0.0 4.0 0.00 0.00 0.00 65 1011.8
20260831080542 54 113 0.0 2.0 0.00 0.00 0.00 64 1011.9
20260831080042 53 70 0.0 3.0 0.00 0.00 0.00 64 1011.9
20260831075542 54 72 0.0 3.0 0.00 0.00 0.00 64 1011.9
20260831075042 54 74 0.0 3.0 0.00 0.00 0.00 65 1012.1
20260831074542 54 109 0.0 2.0 0.00 0.00 0.00 64 1012.5
20260831074042 54 28 0.0 2.0 0.00 0.00 0.00 63 1012.5
20260831073542 54 11 0.0 1.0 0.00 0.00 0.00 63 1012.2
20260831073042 54 58 0.0 1.0 0.00 0.00 0.00 64 1013.0
20260831072542 54 0 0.0 0.0 0.00 0.00 0.00 64 1012.3
20260831072042 54 71 0.0 5.0 0.00 0.00 0.00 65 1012.3
20260831071542 54 40 0.0 5.0 0.00 0.00 0.00 65 1012.6
20260831071042 54 77 0.0 5.0 0.00 0.00 0.00 66 1012.4
20260831070542 54 54 0.0 5.0 0.00 0.00 0.00 65 1012.4
20260831070042 54 0 0.0 0.0 0.00 0.00 0.00 66 1013.2
20260831065542 53 0 0.0 0.0 0.00 0.00 0.00 67 1013.0
20260831065042 53 0 0.0 3.0 0.00 0.00 0.00 67 1012.5
20260831064542 53 30 0.0 3.0 0.00 0.00 0.00 67 1013.3
20260831064042 53 44 0.0 3.0 0.00 0.00 0.00 67 1012.6
20260831063542 53 32 1.0 3.0 0.00 0.00 0.00 67 1012.5
20260831063042 53 23 0.0 3.0 0.00 0.00 0.00 68 1013.0
20260831062542 53 35 0.0 3.0 0.00 0.00 0.00 68 1012.7
20260831062042 52 77 0.0 3.0 0.00 0.00 0.00 69 1012.6
20260831061542 53 18 0.0 3.0 0.00 0.00 0.00 69 1013.0
20260831061042 53 70 0.0 3.0 0.00 0.00 0.00 70 1012.7
20260831060542 53 51 0.0 3.0 0.00 0.00 0.00 70 1013.4
20260831060042 53 0 0.0 0.0 0.00 0.00 0.00 71 1013.1
20260831055542 53 0 0.0 2.0 0.00 0.00 0.00 71 1013.0
20260831055042 53 46 0.0 2.0 0.00 0.00 0.00 71 1013.0
20260831054542 53 16 0.0 2.0 0.00 0.00 0.00 73 1013.1
20260831054042 53 0 0.0 2.0 0.00 0.00 0.00 74 1013.2
20260831053542 53 0 0.0 2.0 0.00 0.00 0.00 74 1013.3
20260831053042 53 324 0.0 2.0 0.00 0.00 0.00 73 1013.3
20260831052542 53 56 0.0 1.0 0.00 0.00 0.00 73 1013.4
20260831052042 53 0 0.0 4.0 0.00 0.00 0.00 73 1013.5
20260831051542 53 0 0.0 4.0 0.00 0.00 0.00 74 1013.6
20260831051042 53 19 0.0 4.0 0.00 0.00 0.00 74 1013.6
20260831050542 53 0 0.0 0.0 0.00 0.00 0.00 74 1013.8
20260831050042 53 0 0.0 0.0 0.00 0.00 0.00 73 1013.8
20260831045542 54 0 0.0 0.0 0.00 0.00 0.00 73 1013.6
20260831045042 53 0 0.0 0.0 0.00 0.00 0.00 72 1013.7
20260831044542 53 0 0.0 0.0 0.00 0.00 0.00 72 1013.7
20260831044042 54 0 0.0 0.0 0.00 0.00 0.00 72 1013.8
20260831043542 54 0 0.0 0.0 0.00 0.00 0.00 72 1014.3
20260831043042 54 0 0.0 0.0 0.00 0.00 0.00 72 1014.4
20260831042542 54 0 0.0 0.0 0.00 0.00 0.00 72 1013.8
20260831042042 54 0 0.0 0.0 0.00 0.00 0.00 71 1013.8
20260831041542 54 0 0.0 0.0 0.00 0.00 0.00 70 1013.8
20260831041042 54 0 0.0 0.0 0.00 0.00 0.00 71 1014.3
20260831040542 54 0 0.0 0.0 0.00 0.00 0.00 70 1014.0
20260831040042 55 0 0.0 0.0 0.00 0.00 0.00 70 1014.1
20260831035543 55 0 0.0 0.0 0.00 0.00 0.00 69 1014.0
20260831035042 55 0 0.0 0.0 0.00 0.00 0.00 68 1013.8
20260831034542 55 0 0.0 0.0 0.00 0.00 0.00 68 1014.0
20260831034042 55 0 0.0 0.0 0.00 0.00 0.00 68 1014.0
20260831033542 55 0 0.0 0.0 0.00 0.00 0.00 68 1013.8
20260831033042 55 0 0.0 0.0 0.00 0.00 0.00 69 1014.2
20260831032543 55 0 0.0 0.0 0.00 0.00 0.00 69 1014.2
20260831032042 55 0 0.0 0.0 0.00 0.00 0.00 69 1014.0
20260831031542 54 0 0.0 1.0 0.00 0.00 0.00 70 1014.2
20260831031042 54 0 0.0 1.0 0.00 0.00 0.00 71 1014.0
20260831030542 54 57 0.0 1.0 0.00 0.00 0.00 70 1014.0
20260831030042 54 57 0.0 0.0 0.00 0.00 0.00 71 1014.4
20260831025542 54 77 0.0 4.0 0.00 0.00 0.00 71 1014.0
20260831025042 54 64 0.0 4.0 0.00 0.00 0.00 71 1014.0
20260831024542 55 75 0.0 4.0 0.00 0.00 0.00 71 1014.1
20260831024042 54 54 0.0 1.0 0.00 0.00 0.00 71 1014.1
20260831023542 55 53 0.0 5.0 0.00 0.00 0.00 70 1014.1
20260831023042 55 58 0.0 5.0 0.00 0.00 0.00 69 1015.1
20260831022542 55 51 0.0 5.0 0.00 0.00 0.00 70 1014.2
20260831022042 55 0 0.0 0.0 0.00 0.00 0.00 70 1014.4
20260831021542 55 0 0.0 2.0 0.00 0.00 0.00 70 1014.3
20260831021042 55 64 0.0 2.0 0.00 0.00 0.00 70 1014.3
20260831020542 55 60 0.0 2.0 0.00 0.00 0.00 69 1014.6
20260831020042 55 74 0.0 1.0 0.00 0.00 0.00 69 1014.3
20260831015542 55 0 0.0 0.0 0.00 0.00 0.00 69 1014.3
20260831015042 56 0 0.0 0.0 0.00 0.00 0.00 69 1014.4
20260831014542 55 0 0.0 0.0 0.00 0.00 0.00 68 1014.5
20260831014042 55 0 0.0 0.0 0.00 0.00 0.00 69 1014.8
20260831013542 55 0 0.0 0.0 0.00 0.00 0.00 70 1015.4
20260831013042 55 0 0.0 0.0 0.00 0.00 0.00 69 1014.6
20260831012542 55 0 0.0 0.0 0.00 0.00 0.00 69 1014.6
20260831012042 55 0 0.0 0.0 0.00 0.00 0.00 70 1015.3
20260831011542 55 0 0.0 0.0 0.00 0.00 0.00 70 1014.8
20260831011042 55 0 0.0 0.0 0.00 0.00 0.00 70 1015.2
20260831010542 55 0 0.0 0.0 0.00 0.00 0.00 70 1014.8
20260831010042 55 0 0.0 0.0 0.00 0.00 0.00 69 1015.4
20260831005542 55 0 0.0 0.0 0.00 0.00 0.00 69 1015.2
20260831005042 55 0 0.0 0.0 0.00 0.00 0.00 69 1015.5
20260831004542 55 0 0.0 0.0 0.00 0.00 0.00 68 1015.1
20260831004042 56 0 0.0 0.0 0.00 0.00 0.00 68 1015.4
20260831003542 56 0 0.0 0.0 0.00 0.00 0.00 68 1015.3
20260831003042 56 0 0.0 0.0 0.00 0.00 0.00 68 1016.5
20260831002542 56 0 0.0 0.0 0.00 0.00 0.00 68 1016.0
20260831002042 56 0 0.0 1.0 0.00 0.00 0.00 67 1015.6
20260831001542 56 352 0.0 1.0 0.00 0.00 0.00 67 1015.7
20260831001042 56 29 0.0 1.0 0.00 0.00 0.00 67 1015.5
20260831000542 56 0 0.0 0.0 0.00 0.00 0.00 67 1015.3
20260831000042 56 0 0.0 5.0 0.00 0.00 0.00 66 1016.1
20260830235542 57 0 0.0 5.0 0.00 0.00 0.00 66 1016.0
20260830235041 57 53 0.0 5.0 0.00 0.00 0.00 66 1015.4
20260830234541 57 326 1.0 1.0 0.00 0.00 0.00 66 1016.1
20260830234042 57 0 0.0 0.0 0.00 0.00 0.00 67 1015.4
20260830233541 56 324 0.0 3.0 0.00 0.00 0.00 67 1015.9
20260830233041 57 0 0.0 3.0 0.00 0.00 0.00 66 1015.7
20260830232541 57 21 0.0 3.0 0.00 0.00 0.00 66 1015.6
20260830232042 57 0 0.0 2.0 0.00 0.00 0.00 66 1015.6
20260830231541 57 336 0.0 2.0 0.00 0.00 0.00 66 1016.1
20260830231041 57 0 0.0 0.0 0.00 0.00 0.00 65 1016.1
20260830230541 57 0 0.0 3.0 0.00 0.00 0.00 65 1015.9
20260830230041 57 333 0.0 3.0 0.00 0.00 0.00 66 1016.3
20260830225541 57 341 0.0 3.0 0.00 0.00 0.00 66 1016.0
20260830225041 57 315 0.0 1.0 0.00 0.00 0.00 64 1016.0
20260830224542 57 343 0.0 3.0 0.00 0.00 0.00 65 1016.1
20260830224041 57 330 0.0 3.0 0.00 0.00 0.00 65 1016.4
20260830223541 57 22 0.0 3.0 0.00 0.00 0.00 64 1016.1
20260830223041 57 0 0.0 2.0 0.00 0.00 0.00 64 1016.2
20260830222541 57 0 0.0 2.0 0.00 0.00 0.00 64 1016.2
20260830222041 58 32 0.0 2.0 0.00 0.00 0.00 64 1016.6
20260830221541 57 51 0.0 1.0 0.00 0.00 0.00 63 1016.4
20260830221041 58 327 0.0 3.0 0.00 0.00 0.00 63 1016.4
20260830220541 58 33 0.0 3.0 0.00 0.00 0.00 63 1016.4
20260830220041 58 36 0.0 3.0 0.00 0.00 0.00 62 1016.5
20260830215541 58 334 0.0 1.0 0.00 0.00 0.00 63 1016.6
20260830215041 58 0 0.0 1.0 0.00 0.00 0.00 62 1016.9
20260830214541 58 357 0.0 1.0 0.00 0.00 0.00 61 1016.5
20260830214041 58 29 0.0 1.0 0.00 0.00 0.00 61 1017.0
20260830213542 58 0 0.0 0.0 0.00 0.00 0.00 61 1017.0
20260830213041 58 0 0.0 0.0 0.00 0.00 0.00 60 1016.7
20260830212541 58 0 0.0 0.0 0.00 0.00 0.00 60 1016.7
20260830212041 58 357 0.0 0.0 0.00 0.00 0.00 60 1016.9
20260830211541 57 0 0.0 2.0 0.00 0.00 0.00 59 1016.9
20260830211041 58 0 0.0 2.0 0.00 0.00 0.00 59 1017.3
20260830210541 58 47 0.0 2.0 0.00 0.00 0.00 59 1017.0
20260830210041 57 33 0.0 2.0 0.00 0.00 0.00 59 1017.3
20260830205541 58 42 0.0 1.0 0.00 0.00 0.00 57 1017.0
20260830205041 57 46 0.0 1.0 0.00 0.00 0.00 59 1017.3
20260830204541 57 64 0.0 0.0 0.00 0.00 0.00 58 1017.5
20260830204041 57 64 0.0 0.0 0.00 0.00 0.00 57 1017.5
20260830203541 57 0 0.0 0.0 0.00 0.00 0.00 57 1017.1
20260830203041 57 0 0.0 0.0 0.00 0.00 0.00 57 1018.1
20260830202542 57 0 0.0 0.0 0.00 0.00 0.00 57 1017.5
20260830202042 57 0 0.0 0.0 0.00 0.00 0.00 58 1017.5
20260830201541 56 0 0.0 0.0 0.00 0.00 0.00 58 1017.2
20260830201041 56 64 0.0 0.0 0.00 0.00 0.00 59 1017.4
20260830200541 56 0 0.0 0.0 0.00 0.00 0.00 60 1017.5
20260830200041 56 0 0.0 0.0 0.00 0.00 0.00 62 1017.7
20260830195541 55 0 0.0 0.0 0.00 0.00 0.00 62 1017.4
20260830195041 55 0 0.0 0.0 0.00 0.00 0.00 62 1018.1
20260830194541 55 0 0.0 0.0 0.00 0.00 0.00 62 1017.9
20260830194041 55 0 0.0 0.0 0.00 0.00 0.00 62 1017.4
20260830193541 55 0 0.0 0.0 0.00 0.00 0.00 60 1017.6
20260830193041 55 0 0.0 1.0 0.00 0.00 0.00 60 1017.4
20260830192541 54 0 0.0 1.0 0.00 0.00 0.00 62 1018.1
20260830192041 54 21 0.0 1.0 0.00 0.00 0.00 62 1017.4
20260830191541 54 0 0.0 0.0 0.00 0.00 0.00 63 1017.5
20260830191041 53 0 0.0 0.0 0.00 0.00 0.00 64 1017.9
20260830190541 53 0 0.0 3.0 0.00 0.00 0.00 64 1017.9
20260830190041 53 37 0.0 3.0 0.00 0.00 0.00 64 1017.9
20260830185541 53 54 0.0 3.0 0.00 0.00 0.00 65 1017.5
20260830185041 52 295 1.0 1.0 0.00 0.00 0.00 64 1017.6
20260830184541 52 295 0.0 4.0 0.00 0.00 0.00 66 1018.0
20260830184041 52 291 0.0 4.0 0.00 0.00 0.00 66 1017.6
20260830183541 52 49 0.0 4.0 0.00 0.00 0.00 68 1017.9
20260830183041 51 26 0.0 4.0 0.00 0.00 0.00 68 1017.6
20260830182541 51 49 0.0 4.0 0.00 0.00 0.00 68 1017.6
20260830182041 51 61 0.0 4.0 0.00 0.00 0.00 69 1018.5
20260830181541 51 74 0.0 3.0 0.00 0.00 0.00 64 1017.7
20260830181041 51 78 0.0 3.0 0.00 0.00 0.00 70 1017.9
20260830180541 51 0 0.0 0.0 0.00 0.00 0.00 69 1017.7
20260830180041 51 0 0.0 0.0 0.00 0.00 0.00 71 1017.9
20260830175541 50 0 0.0 0.0 0.00 0.00 0.00 72 1017.5
20260830175041 50 21 0.0 4.0 0.00 0.00 0.00 72 1017.7
20260830174541 50 19 0.0 4.0 0.00 0.00 0.00 72 1017.7
20260830174041 50 71 0.0 4.0 0.00 0.01 0.00 73 1018.0
20260830173541 49 0 0.0 2.0 0.00 0.01 0.00 74 1018.0
20260830173041 49 70 0.0 2.0 0.00 0.01 0.00 74 1017.5
20260830172541 49 54 0.0 2.0 0.00 0.01 0.00 75 1017.7
20260830172041 49 68 0.0 2.0 0.00 0.01 0.00 75 1018.0
20260830171541 49 43 0.0 2.0 0.00 0.01 0.00 75 1017.6
20260830171041 49 0 0.0 2.0 0.00 0.01 0.00 76 1017.6
20260830170541 49 5 0.0 2.0 0.00 0.01 0.00 75 1017.6
20260830170041 48 36 0.0 2.0 0.00 0.01 0.00 75 1018.0
20260830165541 48 71 0.0 2.0 0.00 0.01 0.00 76 1017.7
20260830165041 48 0 0.0 1.0 0.00 0.01 0.00 77 1017.6
20260830164541 48 49 0.0 1.0 0.00 0.01 0.00 77 1017.7
20260830164041 48 63 0.0 4.0 0.00 0.01 0.00 77 1017.3
20260830163541 47 65 0.0 4.0 0.00 0.01 0.00 78 1018.0
20260830163041 47 82 0.0 4.0 0.00 0.01 0.00 78 1017.7
20260830162541 47 0 0.0 1.0 0.00 0.01 0.00 78 1017.9
20260830162041 47 65 0.0 1.0 0.00 0.01 0.00 79 1017.3
20260830161541 46 0 0.0 0.0 0.00 0.01 0.00 79 1017.6
20260830161041 47 0 0.0 0.0 0.00 0.01 0.00 79 1017.5
20260830160541 47 0 0.0 1.0 0.00 0.01 0.00 79 1017.9
20260830160041 47 0 0.0 1.0 0.00 0.01 0.00 79 1017.7
20260830155541 47 65 0.0 1.0 0.00 0.01 0.00 80 1018.1
20260830155041 46 0 0.0 0.0 0.00 0.01 0.00 80 1017.4
20260830154541 46 0 0.0 0.0 0.00 0.01 0.00 81 1017.7
20260830154133 46 47 0.0 2.0 0.00 0.03 0.00 81 1017.7
20260830154041 46 47 0.0 2.0 0.00 0.03 0.00 81 1017.7
20260830153541 46 0 0.0 2.0 0.00 0.03 0.00 81 1017.9
20260830153041 46 85 0.0 2.0 0.00 0.03 0.00 81 1017.5
20260830152540 46 0 0.0 0.0 0.00 0.03 0.00 81 1018.0
20260830152041 46 0 0.0 0.0 0.00 0.03 0.00 82 1017.2
20260830151541 46 0 0.0 0.0 0.00 0.03 0.00 82 1018.0
20260830151041 45 0 0.0 0.0 0.00 0.03 0.00 82 1017.5
20260830150541 46 0 0.0 0.0 0.00 0.03 0.00 82 1017.4
20260830150041 45 0 0.0 0.0 0.00 0.03 0.00 82 1017.4
20260830145541 45 0 0.0 0.0 0.00 0.03 0.00 82 1017.3
20260830145041 45 0 0.0 0.0 0.00 0.03 0.00 82 1017.1
20260830144541 45 0 0.0 0.0 0.00 0.03 0.00 82 1017.2
20260830144041 45 0 0.0 0.0 0.00 0.03 0.00 82 1017.3
20260830143540 45 0 0.0 0.0 0.00 0.03 0.00 82 1017.6
20260830143040 45 0 0.0 0.0 0.00 0.03 0.00 82 1017.4
20260830142541 45 0 0.0 0.0 0.00 0.03 0.00 82 1017.6
20260830142041 44 0 0.0 0.0 0.00 0.03 0.00 82 1017.1
20260830141541 44 0 0.0 0.0 0.00 0.03 0.00 82 1017.3
20260830141040 44 0 0.0 0.0 0.00 0.03 0.00 82 1017.1
20260830140540 44 0 0.0 0.0 0.00 0.03 0.00 83 1017.6
20260830140040 44 0 0.0 0.0 0.00 0.03 0.00 83 1017.4
20260830135540 44 0 0.0 1.0 0.00 0.03 0.00 83 1017.6
20260830135040 44 0 0.0 1.0 0.00 0.03 0.00 83 1017.1
20260830134540 44 357 0.0 1.0 0.00 0.03 0.00 83 1017.2
20260830134040 44 0 0.0 0.0 0.00 0.04 0.00 83 1017.6
20260830133540 44 0 0.0 0.0 0.00 0.04 0.00 83 1017.7
20260830133040 44 0 0.0 0.0 0.00 0.04 0.00 83 1017.4
20260830132540 44 0 0.0 0.0 0.00 0.04 0.00 83 1017.0
20260830132041 44 0 0.0 0.0 0.00 0.04 0.00 83 1017.0
20260830131540 44 0 0.0 0.0 0.00 0.04 0.00 83 1016.9
20260830131040 44 0 0.0 0.0 0.00 0.04 0.00 83 1016.9
20260830130540 44 0 0.0 0.0 0.00 0.04 0.00 83 1017.2
20260830130040 44 0 0.0 0.0 0.00 0.04 0.00 83 1017.1
20260830125540 44 0 0.0 0.0 0.00 0.04 0.00 83 1016.7
20260830125041 44 0 0.0 0.0 0.00 0.04 0.00 83 1016.9
20260830124540 44 0 0.0 0.0 0.00 0.04 0.00 83 1016.6
20260830124040 44 0 0.0 0.0 0.00 0.04 0.00 83 1016.6
20260830123540 44 0 0.0 0.0 0.00 0.04 0.00 83 1016.7
20260830123040 44 0 0.0 0.0 0.00 0.04 0.00 83 1017.0
20260830122540 44 0 0.0 0.0 0.00 0.04 0.00 82 1016.9
20260830122040 44 0 0.0 0.0 0.00 0.04 0.00 83 1017.0
20260830121540 44 0 0.0 0.0 0.00 0.04 0.00 83 1017.1
20260830121040 44 0 0.0 0.0 0.00 0.04 0.00 82 1016.7
20260830120540 44 0 0.0 0.0 0.00 0.04 0.00 82 1016.6
20260830120041 44 0 0.0 0.0 0.00 0.04 0.00 83 1017.5
20260830115540 45 0 0.0 0.0 0.00 0.04 0.00 83 1017.5
20260830115040 44 357 0.0 0.0 0.00 0.04 0.00 82 1016.6
20260830114540 44 0 0.0 0.0 0.00 0.04 0.00 82 1016.6
20260830114040 44 0 0.0 0.0 0.00 0.09 0.00 82 1016.9
20260830113540 44 0 0.0 0.0 0.00 0.09 0.00 83 1016.7
20260830113040 44 0 0.0 0.0 0.00 0.09 0.00 82 1016.6
20260830112540 44 0 0.0 0.0 0.00 0.09 0.00 82 1017.9